owner,sensor,date,latitude,longitude,vertical_datum,wind_speed,wind_to_direction,wind_speed_of_gust,qcFlag 
TABS,ioos:station:wmo:42046:1,2012-01-01T00:00:00Z,27.8903,-94.0367,4.0,5.481204247,170.1254713,6.16,'11111222,11111222,11111222' 
TABS,ioos:station:wmo:42046:1,2012-01-01T00:30:00Z,27.8903,-94.0367,4.0,5.24900943,166.7847223,5.99,'11111222,11111222,11111222' 
TABS,ioos:station:wmo:42046:1,2012-01-01T01:00:00Z,27.8903,-94.0367,4.0,5.328686517,166.433412,6.25,'11111222,11111222,11111222' 
TABS,ioos:station:wmo:42046:1,2012-01-01T01:30:00Z,27.8903,-94.0367,4.0,5.456051686,160.4029439,6.34,'11111222,11111222,11111222' 
TABS,ioos:station:wmo:42046:1,2012-01-01T02:00:00Z,27.8903,-94.0367,4.0,5.736793529,160.8704633,6.79,'11111222,11111222,11111222' 
TABS,ioos:station:wmo:42046:1,2012-01-01T02:30:00Z,27.8903,-94.0367,4.0,5.965534343,162.8410308,7.05,'11111222,11111222,11111222' 
TABS,ioos:station:wmo:42046:1,2012-01-01T03:00:00Z,27.8903,-94.0367,4.0,6.255181852,166.4083154,6.94,'11111222,11111222,11111222' 
TABS,ioos:station:wmo:42046:1,2012-01-01T03:30:00Z,27.8903,-94.0367,4.0,6.332811382,169.1693835,7.87,'11111222,11111222,11111222' 
TABS,ioos:station:wmo:42046:1,2012-01-01T04:00:00Z,27.8903,-94.0367,4.0,6.359402488,169.8565568,7.45,'11111222,11111222,11111222' 
TABS,ioos:station:wmo:42046:1,2012-01-01T04:30:00Z,27.8903,-94.0367,4.0,6.005763898,172.922543,7.1,'11111222,11111222,11111222' 
TABS,ioos:station:wmo:42046:1,2012-01-01T05:00:00Z,27.8903,-94.0367,4.0,5.365258614,174.438395,6.48,'11111222,11111222,11111222' 
TABS,ioos:station:wmo:42046:1,2012-01-01T05:30:00Z,27.8903,-94.0367,4.0,5.739276958,175.3029039,6.6,'11111222,11111222,11111222' 
TABS,ioos:station:wmo:42046:1,2012-01-01T06:00:00Z,27.8903,-94.0367,4.0,4.853720223,182.2436349,5.6,'11111222,11111222,11111222' 
TABS,ioos:station:wmo:42046:1,2012-01-01T06:30:00Z,27.8903,-94.0367,4.0,4.140591745,180.9688851,4.85,'11111222,11111222,11111222' 
TABS,ioos:station:wmo:42046:1,2012-01-01T07:00:00Z,27.8903,-94.0367,4.0,4.212172836,175.6432456,4.81,'11111222,11111222,11111222' 
TABS,ioos:station:wmo:42046:1,2012-01-01T07:30:00Z,27.8903,-94.0367,4.0,4.393108239,174.1209237,5.08,'11111222,11111222,11111222' 
TABS,ioos:station:wmo:42046:1,2012-01-01T08:00:00Z,27.8903,-94.0367,4.0,4.124851512,177.2210501,4.8,'11111222,11111222,11111222' 
TABS,ioos:station:wmo:42046:1,2012-01-01T08:30:00Z,27.8903,-94.0367,4.0,4.142197484,169.2871125,4.86,'11111222,11111222,11111222' 
TABS,ioos:station:wmo:42046:1,2012-01-01T09:00:00Z,27.8903,-94.0367,4.0,4.028920451,174.4452865,4.85,'11111222,11111222,11111222' 
TABS,ioos:station:wmo:42046:1,2012-01-01T09:30:00Z,27.8903,-94.0367,4.0,4.188197703,174.6571672,4.91,'11111222,11111222,11111222' 
TABS,ioos:station:wmo:42046:1,2012-01-01T10:00:00Z,27.8903,-94.0367,4.0,2.985113063,174.232335,3.66,'11111222,11111222,11111222' 
TABS,ioos:station:wmo:42046:1,2012-01-01T10:30:00Z,27.8903,-94.0367,4.0,2.313871215,165.4835444,2.85,'11111222,11111222,11111222' 
TABS,ioos:station:wmo:42046:1,2012-01-01T11:00:00Z,27.8903,-94.0367,4.0,2.151325173,166.2869707,2.58,'11111222,11111222,11111222' 
TABS,ioos:station:wmo:42046:1,2012-01-01T11:30:00Z,27.8903,-94.0367,4.0,1.994492417,164.2916094,2.31,'11111222,11111222,11111222' 
TABS,ioos:station:wmo:42046:1,2012-01-01T12:00:00Z,27.8903,-94.0367,4.0,2.290545786,159.8248124,2.62,'11111222,11111222,11111222' 
TABS,ioos:station:wmo:42046:1,2012-01-01T12:30:00Z,27.8903,-94.0367,4.0,1.854319282,172.8752108,2.55,'11111222,11111222,11111222' 
TABS,ioos:station:wmo:42046:1,2012-01-01T13:00:00Z,27.8903,-94.0367,4.0,2.072800039,173.6295084,2.48,'11111222,11111222,11111222' 
TABS,ioos:station:wmo:42046:1,2012-01-01T13:30:00Z,27.8903,-94.0367,4.0,0.481040539,159.3048081,0.81,'11111222,11111222,11111222' 
TABS,ioos:station:wmo:42046:1,2012-01-01T14:00:00Z,27.8903,-94.0367,4.0,1.362974688,161.1665016,1.87,'11111222,11111222,11111222' 
TABS,ioos:station:wmo:42046:1,2012-01-01T14:30:00Z,27.8903,-94.0367,4.0,1.627789913,171.5216783,2.13,'11111222,11111222,11111222' 
TABS,ioos:station:wmo:42046:1,2012-01-01T15:00:00Z,27.8903,-94.0367,4.0,2.222251111,177.421069,2.94,'11111222,11111222,11111222' 
TABS,ioos:station:wmo:42046:1,2012-01-01T15:30:00Z,27.8903,-94.0367,4.0,1.314724306,194.9877374,1.6,'11111222,11111222,11111222' 
TABS,ioos:station:wmo:42046:1,2012-01-01T16:00:00Z,27.8903,-94.0367,4.0,9.42653701,335.8275286,11.39,'11111222,11111222,11111222' 
TABS,ioos:station:wmo:42046:1,2012-01-01T16:30:00Z,27.8903,-94.0367,4.0,11.2041644,348.5193911,15.14,'11111222,11111222,11111222' 
TABS,ioos:station:wmo:42046:1,2012-01-01T17:00:00Z,27.8903,-94.0367,4.0,11.01339639,353.8491994,12.88,'11111222,11111222,11111222' 
TABS,ioos:station:wmo:42046:1,2012-01-01T17:30:00Z,27.8903,-94.0367,4.0,11.65116732,2.508561217,13.42,'11111222,11111222,11111222' 
TABS,ioos:station:wmo:42046:1,2012-01-01T18:00:00Z,27.8903,-94.0367,4.0,11.81687353,7.341293209,13.6,'11111222,11111222,11111222' 
TABS,ioos:station:wmo:42046:1,2012-01-01T18:30:00Z,27.8903,-94.0367,4.0,11.57350422,4.360515335,13.63,'11111222,11111222,11111222' 
TABS,ioos:station:wmo:42046:1,2012-01-01T19:00:00Z,27.8903,-94.0367,4.0,11.56776988,8.85137179,13.16,'11111222,11111222,11111222' 
TABS,ioos:station:wmo:42046:1,2012-01-01T19:30:00Z,27.8903,-94.0367,4.0,10.6765397,13.76267001,12.42,'11111222,11111222,11111222' 
TABS,ioos:station:wmo:42046:1,2012-01-01T20:00:00Z,27.8903,-94.0367,4.0,10.33174719,19.97811142,12.26,'11111222,11111222,11111222' 
TABS,ioos:station:wmo:42046:1,2012-01-01T20:30:00Z,27.8903,-94.0367,4.0,10.80104162,9.592901371,12.48,'11111222,11111222,11111222' 
TABS,ioos:station:wmo:42046:1,2012-01-01T21:00:00Z,27.8903,-94.0367,4.0,10.23633235,18.27539359,12.02,'11111222,11111222,11111222' 
TABS,ioos:station:wmo:42046:1,2012-01-01T21:30:00Z,27.8903,-94.0367,4.0,11.0278239,11.666324,12.76,'11111222,11111222,11111222' 
TABS,ioos:station:wmo:42046:1,2012-01-01T22:00:00Z,27.8903,-94.0367,4.0,10.73465416,13.90654798,12.53,'11111222,11111222,11111222' 
TABS,ioos:station:wmo:42046:1,2012-01-01T22:30:00Z,27.8903,-94.0367,4.0,10.86130747,7.831460762,13.29,'11111222,11111222,11111222' 
TABS,ioos:station:wmo:42046:1,2012-01-01T23:00:00Z,27.8903,-94.0367,4.0,11.45600279,16.21994531,13.35,'11111222,11111222,11111222' 
TABS,ioos:station:wmo:42046:1,2012-01-01T23:30:00Z,27.8903,-94.0367,4.0,11.42383911,11.10313705,13.66,'11111222,11111222,11111222' 
TABS,ioos:station:wmo:42046:1,2012-01-02T00:00:00Z,27.8903,-94.0367,4.0,11.13352146,11.23904746,13.35,'11111222,11111222,11111222' 
TABS,ioos:station:wmo:42046:1,2012-01-02T00:30:00Z,27.8903,-94.0367,4.0,11.38931517,12.01019292,13.13,'11111222,11111222,11111222' 
TABS,ioos:station:wmo:42046:1,2012-01-02T01:00:00Z,27.8903,-94.0367,4.0,11.66315566,15.10838079,14.12,'11111222,11111222,11111222' 
TABS,ioos:station:wmo:42046:1,2012-01-02T01:30:00Z,27.8903,-94.0367,4.0,11.79529567,18.43469526,13.58,'11111222,11111222,11111222' 
TABS,ioos:station:wmo:42046:1,2012-01-02T02:00:00Z,27.8903,-94.0367,4.0,11.64124134,21.78286901,14.1,'11111222,11111222,11111222' 
TABS,ioos:station:wmo:42046:1,2012-01-02T02:30:00Z,27.8903,-94.0367,4.0,11.85335817,19.97871962,13.87,'11111222,11111222,11111222' 
TABS,ioos:station:wmo:42046:1,2012-01-02T03:00:00Z,27.8903,-94.0367,4.0,12.33616229,18.18501061,14.81,'11111222,11111222,11111222' 
TABS,ioos:station:wmo:42046:1,2012-01-02T03:30:00Z,27.8903,-94.0367,4.0,12.70789518,21.17320689,15.08,'11111222,11111222,11111222' 
TABS,ioos:station:wmo:42046:1,2012-01-02T04:00:00Z,27.8903,-94.0367,4.0,12.55796162,26.89124598,15.49,'11111222,11111222,11111222' 
TABS,ioos:station:wmo:42046:1,2012-01-02T04:30:00Z,27.8903,-94.0367,4.0,12.50876892,26.23702732,16.01,'11111222,11111222,11111222' 
TABS,ioos:station:wmo:42046:1,2012-01-02T05:00:00Z,27.8903,-94.0367,4.0,11.80216929,18.98736923,14.16,'11111222,11111222,11111222' 
TABS,ioos:station:wmo:42046:1,2012-01-02T05:30:00Z,27.8903,-94.0367,4.0,11.95459744,20.46603443,13.97,'11111222,11111222,11111222' 
TABS,ioos:station:wmo:42046:1,2012-01-02T06:00:00Z,27.8903,-94.0367,4.0,11.80069913,29.6060899,14.15,'11111222,11111222,11111222' 
TABS,ioos:station:wmo:42046:1,2012-01-02T06:30:00Z,27.8903,-94.0367,4.0,12.01402514,29.85107665,14.04,'11111222,11111222,11111222' 
TABS,ioos:station:wmo:42046:1,2012-01-02T07:00:00Z,27.8903,-94.0367,4.0,11.96357806,28.23560637,13.57,'11111222,11111222,11111222' 
TABS,ioos:station:wmo:42046:1,2012-01-02T07:30:00Z,27.8903,-94.0367,4.0,11.91612353,24.06962728,13.93,'11111222,11111222,11111222' 
TABS,ioos:station:wmo:42046:1,2012-01-02T08:00:00Z,27.8903,-94.0367,4.0,11.37035619,28.5257289,14.23,'11111222,11111222,11111222' 
TABS,ioos:station:wmo:42046:1,2012-01-02T08:30:00Z,27.8903,-94.0367,4.0,11.46769375,32.60885663,14.53,'11111222,11111222,11111222' 
TABS,ioos:station:wmo:42046:1,2012-01-02T09:00:00Z,27.8903,-94.0367,4.0,11.39954824,31.11000953,14.71,'11111222,11111222,11111222' 
TABS,ioos:station:wmo:42046:1,2012-01-02T09:30:00Z,27.8903,-94.0367,4.0,11.85746179,29.00739284,14.26,'11111222,11111222,11111222' 
TABS,ioos:station:wmo:42046:1,2012-01-02T10:00:00Z,27.8903,-94.0367,4.0,12.29784127,33.96113588,15.24,'11111222,11111222,11111222' 
TABS,ioos:station:wmo:42046:1,2012-01-02T10:30:00Z,27.8903,-94.0367,4.0,12.01869377,32.90966423,14.57,'11111222,11111222,11111222' 
TABS,ioos:station:wmo:42046:1,2012-01-02T11:00:00Z,27.8903,-94.0367,4.0,11.80669725,43.31803038,15.23,'11111222,11111222,11111222' 
TABS,ioos:station:wmo:42046:1,2012-01-02T11:30:00Z,27.8903,-94.0367,4.0,11.99819986,30.66864447,14.25,'11111222,11111222,11111222' 
TABS,ioos:station:wmo:42046:1,2012-01-02T12:00:00Z,27.8903,-94.0367,4.0,11.94096311,35.59316268,15.52,'11111222,11111222,11111222' 
TABS,ioos:station:wmo:42046:1,2012-01-02T12:30:00Z,27.8903,-94.0367,4.0,12.18760846,37.80046751,15.12,'11111222,11111222,11111222' 
TABS,ioos:station:wmo:42046:1,2012-01-02T13:00:00Z,27.8903,-94.0367,4.0,11.79342613,43.17866053,14.58,'11111222,11111222,11111222' 
TABS,ioos:station:wmo:42046:1,2012-01-02T13:30:00Z,27.8903,-94.0367,4.0,11.94085843,39.52880561,14.06,'11111222,11111222,11111222' 
TABS,ioos:station:wmo:42046:1,2012-01-02T14:00:00Z,27.8903,-94.0367,4.0,11.92014262,35.78323882,14.64,'11111222,11111222,11111222' 
TABS,ioos:station:wmo:42046:1,2012-01-02T14:30:00Z,27.8903,-94.0367,4.0,12.16044818,38.01931811,14.8,'11111222,11111222,11111222' 
TABS,ioos:station:wmo:42046:1,2012-01-02T15:00:00Z,27.8903,-94.0367,4.0,11.75954506,45.44756659,14.87,'11111222,11111222,11111222' 
TABS,ioos:station:wmo:42046:1,2012-01-02T15:30:00Z,27.8903,-94.0367,4.0,11.27063885,40.50173791,15.17,'11111222,11111222,11111222' 
TABS,ioos:station:wmo:42046:1,2012-01-02T16:00:00Z,27.8903,-94.0367,4.0,11.43700136,38.18225032,13.93,'11111222,11111222,11111222' 
TABS,ioos:station:wmo:42046:1,2012-01-02T16:30:00Z,27.8903,-94.0367,4.0,11.30761248,33.8584184,13.35,'11111222,11111222,11111222' 
TABS,ioos:station:wmo:42046:1,2012-01-02T17:00:00Z,27.8903,-94.0367,4.0,10.63212114,35.27427465,13.01,'11111222,11111222,11111222' 
TABS,ioos:station:wmo:42046:1,2012-01-02T17:30:00Z,27.8903,-94.0367,4.0,10.12089423,33.18733552,13.08,'11111222,11111222,11111222' 
TABS,ioos:station:wmo:42046:1,2012-01-02T18:00:00Z,27.8903,-94.0367,4.0,10.16516601,26.58998566,12.92,'11111222,11111222,11111222' 
TABS,ioos:station:wmo:42046:1,2012-01-02T18:30:00Z,27.8903,-94.0367,4.0,9.687543548,32.39379202,11.84,'11111222,11111222,11111222' 
TABS,ioos:station:wmo:42046:1,2012-01-02T19:00:00Z,27.8903,-94.0367,4.0,8.92092484,21.50298439,11.17,'11111222,11111222,11111222' 
TABS,ioos:station:wmo:42046:1,2012-01-02T19:30:00Z,27.8903,-94.0367,4.0,9.149038201,14.6891301,11.07,'11111222,11111222,11111222' 
TABS,ioos:station:wmo:42046:1,2012-01-02T20:00:00Z,27.8903,-94.0367,4.0,8.20076216,2.935456123,10.04,'11111222,11111222,11111222' 
TABS,ioos:station:wmo:42046:1,2012-01-02T20:30:00Z,27.8903,-94.0367,4.0,7.644632104,11.1627086,9.9,'11111222,11111222,11111222' 
TABS,ioos:station:wmo:42046:1,2012-01-02T21:00:00Z,27.8903,-94.0367,4.0,7.564819892,2.045193247,9.36,'11111222,11111222,11111222' 
TABS,ioos:station:wmo:42046:1,2012-01-02T21:30:00Z,27.8903,-94.0367,4.0,7.497366204,3.900274163,9.29,'11111222,11111222,11111222' 
TABS,ioos:station:wmo:42046:1,2012-01-02T22:00:00Z,27.8903,-94.0367,4.0,7.35653451,357.5846699,9.25,'11111222,11111222,11111222' 
TABS,ioos:station:wmo:42046:1,2012-01-02T22:30:00Z,27.8903,-94.0367,4.0,7.589499325,345.2677887,9.37,'11111222,11111222,11111222' 
TABS,ioos:station:wmo:42046:1,2012-01-02T23:00:00Z,27.8903,-94.0367,4.0,7.333334848,338.6481977,9.29,'11111222,11111222,11111222' 
TABS,ioos:station:wmo:42046:1,2012-01-02T23:30:00Z,27.8903,-94.0367,4.0,7.480106951,337.6863684,9.31,'11111222,11111222,11111222' 
TABS,ioos:station:wmo:42046:1,2012-01-03T00:00:00Z,27.8903,-94.0367,4.0,8.272756493,343.207712,10.56,'11111222,11111222,11111222' 
TABS,ioos:station:wmo:42046:1,2012-01-03T00:30:00Z,27.8903,-94.0367,4.0,8.245059127,334.957766,10.27,'11111222,11111222,11111222' 
TABS,ioos:station:wmo:42046:1,2012-01-03T01:00:00Z,27.8903,-94.0367,4.0,7.151349523,334.0439245,8.79,'11111222,11111222,11111222' 
TABS,ioos:station:wmo:42046:1,2012-01-03T01:30:00Z,27.8903,-94.0367,4.0,8.235642051,340.6408406,10.0,'11111222,11111222,11111222' 
TABS,ioos:station:wmo:42046:1,2012-01-03T02:00:00Z,27.8903,-94.0367,4.0,8.214164595,347.1986451,10.43,'11111222,11111222,11111222' 
TABS,ioos:station:wmo:42046:1,2012-01-03T02:30:00Z,27.8903,-94.0367,4.0,8.893053469,340.8314092,10.79,'11111222,11111222,11111222' 
TABS,ioos:station:wmo:42046:1,2012-01-03T03:00:00Z,27.8903,-94.0367,4.0,9.023308706,340.5809334,11.19,'11111222,11111222,11111222' 
TABS,ioos:station:wmo:42046:1,2012-01-03T03:30:00Z,27.8903,-94.0367,4.0,8.528663436,341.5436396,10.33,'11111222,11111222,11111222' 
TABS,ioos:station:wmo:42046:1,2012-01-03T04:00:00Z,27.8903,-94.0367,4.0,8.700632161,345.1490038,10.88,'11111222,11111222,11111222' 
TABS,ioos:station:wmo:42046:1,2012-01-03T04:30:00Z,27.8903,-94.0367,4.0,8.408810855,342.0604713,10.23,'11111222,11111222,11111222' 
TABS,ioos:station:wmo:42046:1,2012-01-03T05:00:00Z,27.8903,-94.0367,4.0,8.578490543,350.8778774,10.32,'11111222,11111222,11111222' 
TABS,ioos:station:wmo:42046:1,2012-01-03T05:30:00Z,27.8903,-94.0367,4.0,8.307520689,349.9478856,9.9,'11111222,11111222,11111222' 
TABS,ioos:station:wmo:42046:1,2012-01-03T06:00:00Z,27.8903,-94.0367,4.0,7.962323781,348.7745568,10.06,'11111222,11111222,11111222' 
TABS,ioos:station:wmo:42046:1,2012-01-03T06:30:00Z,27.8903,-94.0367,4.0,7.655481696,353.0975845,9.7,'11111222,11111222,11111222' 
TABS,ioos:station:wmo:42046:1,2012-01-03T07:00:00Z,27.8903,-94.0367,4.0,7.89648656,356.2967335,10.11,'11111222,11111222,11111222' 
TABS,ioos:station:wmo:42046:1,2012-01-03T07:30:00Z,27.8903,-94.0367,4.0,8.195266927,356.5019626,10.52,'11111222,11111222,11111222' 
TABS,ioos:station:wmo:42046:1,2012-01-03T08:00:00Z,27.8903,-94.0367,4.0,8.091538791,355.8183281,9.76,'11111222,11111222,11111222' 
TABS,ioos:station:wmo:42046:1,2012-01-03T08:30:00Z,27.8903,-94.0367,4.0,7.584569863,4.612857044,9.25,'11111222,11111222,11111222' 
TABS,ioos:station:wmo:42046:1,2012-01-03T09:00:00Z,27.8903,-94.0367,4.0,7.915863819,12.77194344,9.62,'11111222,11111222,11111222' 
TABS,ioos:station:wmo:42046:1,2012-01-03T09:30:00Z,27.8903,-94.0367,4.0,8.325412903,11.78208712,11.0,'11111222,11111222,11111222' 
TABS,ioos:station:wmo:42046:1,2012-01-03T10:00:00Z,27.8903,-94.0367,4.0,8.366887115,23.37816089,10.41,'11111222,11111222,11111222' 
TABS,ioos:station:wmo:42046:1,2012-01-03T10:30:00Z,27.8903,-94.0367,4.0,8.172667863,21.38455447,11.04,'11111222,11111222,11111222' 
TABS,ioos:station:wmo:42046:1,2012-01-03T11:00:00Z,27.8903,-94.0367,4.0,7.325469268,26.24997053,9.13,'11111222,11111222,11111222' 
TABS,ioos:station:wmo:42046:1,2012-01-03T11:30:00Z,27.8903,-94.0367,4.0,7.425260938,32.96211777,9.85,'11111222,11111222,11111222' 
TABS,ioos:station:wmo:42046:1,2012-01-03T12:00:00Z,27.8903,-94.0367,4.0,7.914000253,36.88408054,9.56,'11111222,11111222,11111222' 
TABS,ioos:station:wmo:42046:1,2012-01-03T12:30:00Z,27.8903,-94.0367,4.0,7.952515325,35.42850505,10.31,'11111222,11111222,11111222' 
TABS,ioos:station:wmo:42046:1,2012-01-03T13:00:00Z,27.8903,-94.0367,4.0,7.258650012,40.97770354,9.06,'11111222,11111222,11111222' 
TABS,ioos:station:wmo:42046:1,2012-01-03T13:30:00Z,27.8903,-94.0367,4.0,6.380031348,49.06719437,8.53,'11111222,11111222,11111222' 
TABS,ioos:station:wmo:42046:1,2012-01-03T14:00:00Z,27.8903,-94.0367,4.0,6.180129448,52.75892723,8.25,'11111222,11111222,11111222' 
TABS,ioos:station:wmo:42046:1,2012-01-03T14:30:00Z,27.8903,-94.0367,4.0,5.930682929,52.26025463,7.72,'11111222,11111222,11111222' 
TABS,ioos:station:wmo:42046:1,2012-01-03T15:00:00Z,27.8903,-94.0367,4.0,5.962424004,46.29082665,7.95,'11111222,11111222,11111222' 
TABS,ioos:station:wmo:42046:1,2012-01-03T15:30:00Z,27.8903,-94.0367,4.0,5.575598623,65.41110318,7.12,'11111222,11111222,11111222' 
TABS,ioos:station:wmo:42046:1,2012-01-03T16:00:00Z,27.8903,-94.0367,4.0,5.116141124,54.78745036,6.6,'11111222,11111222,11111222' 
TABS,ioos:station:wmo:42046:1,2012-01-03T16:30:00Z,27.8903,-94.0367,4.0,5.083955153,55.90324506,7.3,'11111222,11111222,11111222' 
TABS,ioos:station:wmo:42046:1,2012-01-03T17:00:00Z,27.8903,-94.0367,4.0,4.387824062,50.17738218,5.78,'11111222,11111222,11111222' 
TABS,ioos:station:wmo:42046:1,2012-01-03T17:30:00Z,27.8903,-94.0367,4.0,4.206209695,53.70188775,5.71,'11111222,11111222,11111222' 
TABS,ioos:station:wmo:42046:1,2012-01-03T18:00:00Z,27.8903,-94.0367,4.0,3.606008874,65.06913386,5.29,'11111222,11111222,11111222' 
TABS,ioos:station:wmo:42046:1,2012-01-03T18:30:00Z,27.8903,-94.0367,4.0,3.59684584,70.00290987,5.44,'11111222,11111222,11111222' 
TABS,ioos:station:wmo:42046:1,2012-01-03T19:00:00Z,27.8903,-94.0367,4.0,2.839242857,74.05422047,4.13,'11111222,11111222,11111222' 
TABS,ioos:station:wmo:42046:1,2012-01-03T19:30:00Z,27.8903,-94.0367,4.0,3.220993636,69.6517774,5.14,'11111222,11111222,11111222' 
TABS,ioos:station:wmo:42046:1,2012-01-03T20:00:00Z,27.8903,-94.0367,4.0,3.315071643,58.94697266,4.85,'11111222,11111222,11111222' 
TABS,ioos:station:wmo:42046:1,2012-01-03T20:30:00Z,27.8903,-94.0367,4.0,3.352760057,83.31970864,5.06,'11111222,11111222,11111222' 
TABS,ioos:station:wmo:42046:1,2012-01-03T21:00:00Z,27.8903,-94.0367,4.0,3.412989892,80.89606207,5.19,'11111222,11111222,11111222' 
TABS,ioos:station:wmo:42046:1,2012-01-03T21:30:00Z,27.8903,-94.0367,4.0,3.270382241,89.12356714,4.53,'11111222,11111222,11111222' 
TABS,ioos:station:wmo:42046:1,2012-01-03T22:00:00Z,27.8903,-94.0367,4.0,2.872942742,92.5939213,5.15,'11111222,11111222,11111222' 
TABS,ioos:station:wmo:42046:1,2012-01-03T22:30:00Z,27.8903,-94.0367,4.0,2.486966023,120.1738704,4.9,'11111222,11111222,11111222' 
TABS,ioos:station:wmo:42046:1,2012-01-03T23:00:00Z,27.8903,-94.0367,4.0,2.774058399,126.4984562,4.69,'11111222,11111222,11111222' 
TABS,ioos:station:wmo:42046:1,2012-01-03T23:30:00Z,27.8903,-94.0367,4.0,3.296331294,154.2903168,4.93,'11111222,11111222,11111222' 
TABS,ioos:station:wmo:42046:1,2012-01-04T00:00:00Z,27.8903,-94.0367,4.0,3.188636072,153.3548629,5.98,'11111222,11111222,11111222' 
TABS,ioos:station:wmo:42046:1,2012-01-04T00:30:00Z,27.8903,-94.0367,4.0,3.997861929,144.8791223,6.04,'11111222,11111222,11111222' 
TABS,ioos:station:wmo:42046:1,2012-01-04T01:00:00Z,27.8903,-94.0367,4.0,3.84178344,147.2202565,6.71,'11111222,11111222,11111222' 
TABS,ioos:station:wmo:42046:1,2012-01-04T01:30:00Z,27.8903,-94.0367,4.0,4.738459665,162.9419712,6.43,'11111222,11111222,11111222' 
TABS,ioos:station:wmo:42046:1,2012-01-04T02:00:00Z,27.8903,-94.0367,4.0,5.112856345,169.0639186,7.23,'11111222,11111222,11111222' 
TABS,ioos:station:wmo:42046:1,2012-01-04T02:30:00Z,27.8903,-94.0367,4.0,6.145600052,163.7475022,8.21,'11111222,11111222,11111222' 
TABS,ioos:station:wmo:42046:1,2012-01-04T03:00:00Z,27.8903,-94.0367,4.0,5.959362382,175.3802978,8.37,'11111222,11111222,11111222' 
TABS,ioos:station:wmo:42046:1,2012-01-04T03:30:00Z,27.8903,-94.0367,4.0,6.560922191,179.0395503,8.11,'11111222,11111222,11111222' 
TABS,ioos:station:wmo:42046:1,2012-01-04T04:00:00Z,27.8903,-94.0367,4.0,6.683502076,175.1938645,8.78,'11111222,11111222,11111222' 
TABS,ioos:station:wmo:42046:1,2012-01-04T04:30:00Z,27.8903,-94.0367,4.0,6.712689476,178.3782634,8.96,'11111222,11111222,11111222' 
TABS,ioos:station:wmo:42046:1,2012-01-04T05:00:00Z,27.8903,-94.0367,4.0,6.944364622,185.7025805,9.15,'11111222,11111222,11111222' 
TABS,ioos:station:wmo:42046:1,2012-01-04T05:30:00Z,27.8903,-94.0367,4.0,7.589690376,187.1907551,9.37,'11111222,11111222,11111222' 
TABS,ioos:station:wmo:42046:1,2012-01-04T06:00:00Z,27.8903,-94.0367,4.0,7.758930339,186.4382449,10.01,'11111222,11111222,11111222' 
TABS,ioos:station:wmo:42046:1,2012-01-04T06:30:00Z,27.8903,-94.0367,4.0,7.497366204,183.9006951,9.5,'11111222,11111222,11111222' 
TABS,ioos:station:wmo:42046:1,2012-01-04T07:00:00Z,27.8903,-94.0367,4.0,8.09862334,185.5981561,10.66,'11111222,11111222,11111222' 
TABS,ioos:station:wmo:42046:1,2012-01-04T07:30:00Z,27.8903,-94.0367,4.0,8.532713519,194.525002,12.49,'11111222,11111222,11111222' 
TABS,ioos:station:wmo:42046:1,2012-01-04T08:00:00Z,27.8903,-94.0367,4.0,7.874065024,191.3529277,9.55,'11111222,11111222,11111222' 
TABS,ioos:station:wmo:42046:1,2012-01-04T08:30:00Z,27.8903,-94.0367,4.0,7.554985109,194.0180276,9.35,'11111222,11111222,11111222' 
TABS,ioos:station:wmo:42046:1,2012-01-04T09:00:00Z,27.8903,-94.0367,4.0,7.240607709,191.3101165,9.59,'11111222,11111222,11111222' 
TABS,ioos:station:wmo:42046:1,2012-01-04T09:30:00Z,27.8903,-94.0367,4.0,7.762396537,190.9916498,10.35,'11111222,11111222,11111222' 
TABS,ioos:station:wmo:42046:1,2012-01-04T10:00:00Z,27.8903,-94.0367,4.0,8.068134853,186.2619647,9.83,'11111222,11111222,11111222' 
TABS,ioos:station:wmo:42046:1,2012-01-04T10:30:00Z,27.8903,-94.0367,4.0,7.740316531,179.4820469,9.77,'11111222,11111222,11111222' 
TABS,ioos:station:wmo:42046:1,2012-01-04T11:00:00Z,27.8903,-94.0367,4.0,8.440290279,180.4754004,10.69,'11111222,11111222,11111222' 
TABS,ioos:station:wmo:42046:1,2012-01-04T11:30:00Z,27.8903,-94.0367,4.0,8.064645063,184.4806396,9.53,'11111222,11111222,11111222' 
TABS,ioos:station:wmo:42046:1,2012-01-04T12:00:00Z,27.8903,-94.0367,4.0,8.221970567,193.935013,10.64,'11111222,11111222,11111222' 
TABS,ioos:station:wmo:42046:1,2012-01-04T12:30:00Z,27.8903,-94.0367,4.0,6.612140349,189.5764749,8.38,'11111222,11111222,11111222' 
TABS,ioos:station:wmo:42046:1,2012-01-04T13:00:00Z,27.8903,-94.0367,4.0,6.947236861,195.0165932,8.4,'11111222,11111222,11111222' 
TABS,ioos:station:wmo:42046:1,2012-01-04T13:30:00Z,27.8903,-94.0367,4.0,6.455888785,188.1930491,7.75,'11111222,11111222,11111222' 
TABS,ioos:station:wmo:42046:1,2012-01-04T14:00:00Z,27.8903,-94.0367,4.0,7.398087591,189.8062803,9.16,'11111222,11111222,11111222' 
TABS,ioos:station:wmo:42046:1,2012-01-04T14:30:00Z,27.8903,-94.0367,4.0,6.720535693,187.6962442,8.03,'11111222,11111222,11111222' 
TABS,ioos:station:wmo:42046:1,2012-01-04T15:00:00Z,27.8903,-94.0367,4.0,7.697610019,174.3340689,9.55,'11111222,11111222,11111222' 
TABS,ioos:station:wmo:42046:1,2012-01-04T15:30:00Z,27.8903,-94.0367,4.0,7.940308558,180.5053227,9.55,'11111222,11111222,11111222' 
TABS,ioos:station:wmo:42046:1,2012-01-04T16:00:00Z,27.8903,-94.0367,4.0,7.381524233,178.8358251,8.91,'11111222,11111222,11111222' 
TABS,ioos:station:wmo:42046:1,2012-01-04T16:30:00Z,27.8903,-94.0367,4.0,7.325742283,177.7314875,8.65,'11111222,11111222,11111222' 
TABS,ioos:station:wmo:42046:1,2012-01-04T17:00:00Z,27.8903,-94.0367,4.0,7.250062069,179.7631264,8.52,'11111222,11111222,11111222' 
TABS,ioos:station:wmo:42046:1,2012-01-04T17:30:00Z,27.8903,-94.0367,4.0,7.030860545,180.8966552,8.09,'11111222,11111222,11111222' 
TABS,ioos:station:wmo:42046:1,2012-01-04T18:00:00Z,27.8903,-94.0367,4.0,7.124387693,177.9892513,8.59,'11111222,11111222,11111222' 
TABS,ioos:station:wmo:42046:1,2012-01-04T18:30:00Z,27.8903,-94.0367,4.0,7.414917397,177.9134381,9.05,'11111222,11111222,11111222' 